{"data":{"norad_id":63825,"epoch":"2026-05-24T22:17:19.914144Z","epoch_age_seconds":78299,"freshness":"FRESH","line1":"1 63825U 25092X   26144.92870271  .00017789  00000+0  65381-3 0  9992","line2":"2 63825  43.0025 102.0580 0001195 269.2787  90.7927 15.27609089 60325","mean_motion":15.27609089,"eccentricity":0.0001195,"inclination_deg":43.0025,"raan_deg":102.058,"arg_perigee_deg":269.2787,"mean_anomaly_deg":90.7927,"bstar":0.00065381,"rev_number":6032,"period_min":94.264953669702,"perigee_km":482.14209316129,"apogee_km":483.78189582098,"semimajor_km":6861.0989944911,"source":"CELESTRAK","updated_at":"2026-05-25T13:38:20.143866Z"}}